Flag for U.S.A. Weather past 2 weeks in Neenah, Wisconsin, U.S.A.

Now
66 °F

Passing clouds.


Feels Like: 66 °F
Forecast: 57 / 81 °F
Wind: 7 mph from Southwest

Location: Appleton / Outagamie

Current Time: May 27, 2015 at 11:28:33 PM

Latest Report: May 27, 2015 at 9:45 PM


Visibility: 10 mi

Pressure: 30.05 "Hg

Humidity: 73%

Dew point: 57 °F

Location of NeenahLocation

Historic Weather in Neenah — Graph

°F

Neenah temperature yesterday

Maximum temperature yesterday: 73 °F (at 9:45 AM)
Minimum temperature yesterday: 61 °F (at 11:15 PM)
Average temperature yesterday: 66 °F

Past Weeks' High & Low Weather Summary

 TemperatureHumidityPressure
High75 °F (May 16, 2:45 PM)100% (May 15, 12:15 AM)30.50 "Hg (May 15, 12:15 AM)
Low32 °F (May 13, 3:55 AM)23% (May 21, 3:45 PM)29.63 "Hg (May 26, 7:45 PM)
Average55 °F71%30.06 "Hg
* Reported May 12 9:45 PM — May 27 9:45 PM, Neenah, Weather by CustomWeather, © 2015

Note: Actual official high and low records may vary slightly from our data, if they occured in-between our weather recording intervals... More about our weather records

Advertising

Neenah weather history for previous 24 hours

 ConditionsComfort  
Time TempWeatherWind HumidityBarometerVisibility
9:45 PM
Wed, May 27
66 °FPassing clouds.7 mph73%30.05 "Hg10 mi
8:45 PM66 °FScattered clouds.7 mph68%30.03 "Hg10 mi
7:45 PM73 °FScattered clouds.7 mph53%30.01 "Hg10 mi
5:45 PM75 °FScattered clouds.13 mph47%29.97 "Hg10 mi
4:45 PM75 °FScattered clouds.12 mph50%29.97 "Hg10 mi
3:45 PM72 °FPartly sunny.13 mph57%29.97 "Hg10 mi
2:45 PM70 °FPartly sunny.10 mph60%29.97 "Hg10 mi
1:45 PM68 °FPartly sunny.8 mph64%29.97 "Hg10 mi
12:45 PM64 °FPartly sunny.6 mph73%29.96 "Hg10 mi
11:45 AM63 °FDrizzle. Partly sunny.9 mph88%29.95 "Hg7 mi
10:45 AM57 °FFog.14 mph100%29.94 "Hg5 mi
9:45 AM59 °FFog.14 mph94%29.89 "Hg3 mi
8:45 AM61 °FPartly sunny.15 mph77%29.87 "Hg10 mi
7:45 AM61 °FOvercast.14 mph77%29.84 "Hg10 mi
5:45 AM61 °FOvercast.13 mph83%29.78 "Hg10 mi
4:55 AM59 °FOvercast.16 mph88%29.77 "Hg10 mi
4:35 AM61 °FOvercast.16 mph83%29.75 "Hg10 mi
4:15 AM61 °FOvercast.14 mph83%29.74 "Hg10 mi
3:55 AM61 °FOvercast.14 mph83%29.74 "Hg10 mi
3:35 AM61 °FOvercast.16 mph83%29.74 "Hg10 mi
3:15 AM61 °FOvercast.16 mph83%29.74 "Hg10 mi
2:55 AM61 °FOvercast.15 mph83%29.73 "Hg10 mi
2:35 AM61 °FOvercast.18 mph83%29.72 "Hg10 mi
2:15 AM61 °FMostly cloudy.17 mph83%29.71 "Hg10 mi
1:55 AM61 °FOvercast.21 mph83%29.70 "Hg10 mi
1:15 AM63 °FOvercast.23 mph77%29.68 "Hg10 mi
12:55 AM63 °FOvercast.26 mph77%29.67 "Hg10 mi
12:35 AM63 °FOvercast.23 mph77%29.67 "Hg10 mi
12:15 AM63 °FOvercast.24 mph77%29.67 "Hg10 mi
11:55 PM
Tue, May 26
61 °FOvercast.23 mph88%29.67 "Hg10 mi
11:35 PM63 °FOvercast.21 mph83%29.67 "Hg10 mi
11:15 PM61 °FOvercast.22 mph88%29.67 "Hg7 mi
Weather by CustomWeather, © 2015

See weather overviewHow to use our weather pages